[[{"header":{"parameterUnit":"m.s-1","parameterCategory":1,"la1":30.2992,"la2":30.254,"lo1":-89.0895,"lo2":-89.0443,"dy":0.0025,"dx":0.0025,"nx":19,"ny":19,"refTime":"2026-04-05T03:00:00:Z","depth":0,"parameterNumber":2,"parameterNumberName":"U-component_of_WINDS"},"data":[0,0,0,-2.1554,-2.1556,-2.1661,-2.1661,-2.1797,-2.1798,0,0,0,0,0,0,0,0,0,0,0,-2.1526,-2.1527,-2.1554,-2.1557,-2.1661,-2.1661,-2.1797,-2.1798,0,0,0,0,0,0,0,0,0,0,0,-2.1525,-2.1527,-2.1528,-2.1557,-2.1661,-2.1661,-2.1796,-2.1716,0,0,0,0,0,0,0,0,0,0,-2.1614,-2.1591,-2.1526,-2.1528,-2.1558,-2.1661,-2.1662,-2.1713,-2.1721,-2.1751,0,-2.1779,0,-2.1791,-2.1808,-2.1808,0,0,0,-2.1554,-2.1584,-2.161,-2.1528,-2.1559,-2.1661,-2.1613,-2.1717,-2.1728,-2.1763,-2.1781,-2.1786,-2.1793,-2.1808,-2.1809,-2.199,-2.1991,0,0,-2.1548,-2.1546,-2.1603,-2.1617,-2.1603,-2.161,-2.1616,-2.1724,-2.1743,-2.1782,-2.1789,-2.1795,-2.1809,-2.181,-2.199,-2.1991,0,0,0,-2.1533,-2.1542,-2.1565,-2.1611,-2.163,-2.1613,-2.1621,-2.1738,-2.1746,-2.1791,-2.1797,-2.181,-2.1812,-2.1989,-2.199,-2.2036,0,0,0,-2.153,-2.1533,-2.1563,-2.1562,-2.1628,-2.1686,-2.1633,-2.1738,-2.1751,-2.1796,-2.181,-2.1813,-2.1988,-2.1989,-2.2033,-2.2058,0,0,0,-2.1518,-2.1532,-2.1548,-2.1562,-2.1607,-2.1684,-2.1698,-2.1741,-2.1755,-2.1808,-2.1814,-2.1987,-2.1989,-2.2029,-2.2053,-2.2105,0,0,0,-2.1504,-2.1587,-2.1549,-2.1643,-2.1606,-2.1712,-2.1697,-2.1776,-2.1827,-2.1811,-2.1988,-2.199,-2.2028,-2.205,-2.2102,-2.2149,-2.2169,0,0,-2.1607,-2.1599,-2.1655,-2.1624,-2.1736,-2.1696,-2.1815,-2.1864,-2.187,-2.1949,-2.1954,-2.2034,-2.2053,-2.2105,-2.2278,-2.2294,0,0,0,-2.1686,-2.1726,-2.1756,-2.1806,-2.1846,-2.1882,-2.1912,-2.193,-2.1998,-2.1911,-2.2067,-2.2078,-2.2109,-2.2131,-2.2144,-2.2171,-2.2,-2.2,-2.2,-2.1828,-2.1833,-2.1925,-2.1942,-2.199,-2.2021,-2.206,-2.2089,-2.2079,-2.2116,-2.2139,-2.2244,-2.2271,-2.2281,-2.2308,-2.2164,-2.2165,-2.2165,-2.2165,-2.1978,-2.2036,-2.2021,-2.2106,-2.211,-2.218,-2.2212,-2.2203,-2.2268,-2.2227,-2.2254,-2.2209,-2.2298,-2.2322,-2.2168,-2.2168,-2.2167,-2.2167,-2.2167,-2.2072,-2.21,-2.2121,-2.2193,-2.2247,-2.2261,-2.2325,-2.2326,-2.2327,-2.2354,-2.2379,-2.2378,-2.2377,-2.2365,-2.2366,-2.2366,-2.2367,-2.2367,-2.2367,-2.2161,-2.2183,-2.2237,-2.2287,-2.2318,-2.236,-2.2391,-2.2421,-2.2455,-2.2451,-2.2451,-2.2437,-2.2306,-2.2273,-2.2373,-2.2372,-2.2371,-2.237,-2.237,-2.2312,-2.2278,-2.2362,-2.2394,-2.2451,-2.2505,-2.2505,-2.2567,-2.2592,-2.2624,-2.2604,-2.2507,-2.2498,-2.2488,-2.246,-2.2603,-2.2603,-2.2603,-2.2603,-2.2392,-2.2388,-2.2473,-2.2524,-2.2574,-2.2582,-2.2675,-2.27,-2.272,-2.2735,-2.2715,-2.2678,-2.2668,-2.2666,-2.2651,-2.2626,-2.2807,-2.2807,-2.2808,-2.2485,-2.2486,-2.2566,-2.2586,-2.2631,-2.2668,-2.2756,-2.2813,-2.2828,-2.2816,-2.2747,-2.2739,-2.268,-2.2661,-2.2647,-2.2625,-2.2579,0,0]},{"header":{"parameterUnit":"m.s-1","parameterCategory":1,"la1":30.2992,"la2":30.254,"lo1":-89.0895,"lo2":-89.0443,"dy":0.0025,"dx":0.0025,"nx":19,"ny":19,"refTime":"2026-04-05T03:00:00:Z","depth":0,"parameterNumber":3,"parameterNumberName":"V-component_of_WINDS"},"data":[0,0,0,-5.4232,-5.4237,-5.4478,-5.4479,-5.478,-5.4782,0,0,0,0,0,0,0,0,0,0,0,-5.4159,-5.4161,-5.4231,-5.4238,-5.4478,-5.4479,-5.4779,-5.4782,0,0,0,0,0,0,0,0,0,0,0,-5.4158,-5.4161,-5.4163,-5.4238,-5.4478,-5.4479,-5.4779,-5.4599,0,0,0,0,0,0,0,0,0,0,-5.4366,-5.4298,-5.416,-5.4163,-5.424,-5.4478,-5.448,-5.459,-5.461,-5.4668,0,-5.4722,0,-5.4757,-5.4802,-5.4803,0,0,0,-5.4238,-5.4281,-5.4348,-5.4164,-5.4242,-5.4478,-5.437,-5.4601,-5.4624,-5.4694,-5.4727,-5.4738,-5.4762,-5.4804,-5.4806,-5.5147,-5.5149,0,0,-5.4224,-5.4201,-5.4333,-5.4362,-5.4329,-5.4362,-5.4377,-5.4615,-5.4648,-5.4728,-5.4745,-5.4767,-5.4806,-5.4808,-5.5146,-5.5148,0,0,0,-5.4186,-5.4192,-5.4253,-5.435,-5.4394,-5.4369,-5.4387,-5.4637,-5.4659,-5.4748,-5.4771,-5.4808,-5.4812,-5.5144,-5.5147,-5.5204,0,0,0,-5.4178,-5.4169,-5.4247,-5.4235,-5.439,-5.4519,-5.4403,-5.4642,-5.467,-5.4769,-5.4808,-5.4814,-5.5142,-5.5145,-5.5198,-5.5234,0,0,0,-5.4144,-5.4165,-5.42,-5.4233,-5.4336,-5.4516,-5.4552,-5.4649,-5.4684,-5.4804,-5.4815,-5.5141,-5.5145,-5.5194,-5.5227,-5.5318,0,0,0,-5.41,-5.4246,-5.4201,-5.4372,-5.4334,-5.455,-5.455,-5.4712,-5.4822,-5.4809,-5.5143,-5.5146,-5.5192,-5.5222,-5.5313,-5.5391,-5.5421,0,0,-5.4271,-5.4266,-5.4369,-5.4335,-5.4554,-5.4515,-5.4741,-5.4862,-5.4893,-5.506,-5.5069,-5.52,-5.5226,-5.5317,-5.5599,-5.5623,0,0,0,-5.4415,-5.4489,-5.4552,-5.4657,-5.4754,-5.484,-5.4929,-5.4973,-5.5116,-5.4976,-5.5258,-5.5274,-5.5328,-5.5366,-5.5387,-5.5434,-5.5163,-5.5163,-5.5162,-5.4625,-5.4659,-5.4831,-5.4894,-5.4994,-5.5085,-5.5168,-5.5243,-5.5246,-5.5312,-5.5362,-5.553,-5.5574,-5.5589,-5.5638,-5.5406,-5.5406,-5.5406,-5.5406,-5.488,-5.499,-5.4991,-5.5159,-5.5192,-5.5332,-5.5423,-5.542,-5.5554,-5.5495,-5.5544,-5.5478,-5.5615,-5.5659,-5.5411,-5.541,-5.541,-5.5409,-5.5409,-5.5023,-5.5081,-5.5134,-5.5287,-5.5401,-5.5457,-5.5586,-5.5611,-5.5635,-5.5683,-5.5738,-5.5738,-5.574,-5.5708,-5.5708,-5.5709,-5.5709,-5.571,-5.571,-5.5149,-5.5207,-5.5314,-5.5429,-5.5498,-5.5593,-5.5683,-5.5751,-5.5833,-5.5841,-5.5841,-5.5837,-5.5622,-5.5568,-5.5719,-5.5718,-5.5716,-5.5716,-5.5715,-5.5397,-5.5345,-5.551,-5.558,-5.5716,-5.5826,-5.5856,-5.5992,-5.6052,-5.6114,-5.6099,-5.5936,-5.5932,-5.5916,-5.5871,-5.6092,-5.6092,-5.6092,-5.6092,-5.5518,-5.5518,-5.5692,-5.5802,-5.5912,-5.5955,-5.6137,-5.6207,-5.6272,-5.631,-5.6281,-5.6223,-5.6206,-5.6212,-5.6189,-5.6148,-5.6435,-5.6435,-5.6435,-5.5672,-5.5684,-5.5836,-5.59,-5.6008,-5.6098,-5.627,-5.6393,-5.6455,-5.645,-5.634,-5.6326,-5.6233,-5.6201,-5.6195,-5.6159,-5.6084,0,0]}]]